STARLINK-3242 (49727 NORAD) Tracking and Keplerian Element Data

This shows tracking and keplerian element data for the satellite.

Feedback or suggestion? Click here.




ElementValue
Catalog49727
NameSTARLINK-3242
Epoch Orbit2684
Epoch Day140.91667824
Epoch Year2022
RAAN273.5746
Inclination53.2167
Eccentricity0.0002147
Argument of Perigee32.259
Mean Anonmoly20.8398
Mean Motion15.08845156
Decay Rate-0.00023089
L11 49727U 21115D 22140.91667824 -.00023089 00000+0 -14370-2 0 9991
L22 49727 53.2167 273.5746 0002147 32.2590 20.8398 15.08845156 26847

Live tracking and technical data element details for STARLINK-3242 (NORAD 49727). STARLINK-3242 can be tracked NOW for your location showing map with azimuth and elevation plus other details from your city location.

Track the satellite on the map from your city or location and see movement details for azimuth, elevation, latitude, longitude, range, height, and movement on the map or in text.







IsCatalogInMostPopularTable: catalog: 49727, numindb: 20
Update: records affected: 1



GetName: 49727 STARLINK-3242

Hit Count: updated at: Sun, 22 May 2022 05:32:28 GMT